Time,TemperatureF,DewpointF,PressureIn,WindDirection,WindDirectionDegrees,WindSpeedMPH,WindSpeedGustMPH,Humidity,HourlyPrecipIn,Conditions,Clouds,dailyrainin,SoftwareType,DateUTC
2013-09-23 00:01:00,48.1,34.0,29.91,ENE,71,0.0,0.0,58,0.00,,---,0.00,VWS V14.01,2013-09-23 07:01:00,
2013-09-23 00:06:00,48.0,33.9,29.91,ENE,71,0.0,0.0,58,0.00,,---,0.00,VWS V14.01,2013-09-23 07:06:00,
2013-09-23 00:11:00,47.8,33.8,29.91,ENE,71,0.0,0.0,58,0.00,,---,0.00,VWS V14.01,2013-09-23 07:11:00,
2013-09-23 00:16:00,47.5,33.9,29.91,ENE,71,0.0,0.0,59,0.00,,---,0.00,VWS V14.01,2013-09-23 07:16:00,
2013-09-23 00:21:00,46.9,33.3,29.91,ENE,71,0.0,0.0,59,0.00,,---,0.00,VWS V14.01,2013-09-23 07:21:00,
2013-09-23 00:26:00,46.4,33.7,29.91,ENE,71,0.0,0.0,61,0.00,,---,0.00,VWS V14.01,2013-09-23 07:26:00,
2013-09-23 00:31:00,46.4,34.1,29.92,ENE,71,0.0,0.0,62,0.00,,---,0.00,VWS V14.01,2013-09-23 07:31:00,
2013-09-23 00:36:00,46.4,34.1,29.91,ENE,71,0.0,0.0,62,0.00,,---,0.00,VWS V14.01,2013-09-23 07:36:00,
2013-09-23 00:41:00,46.3,34.4,29.91,ENE,65,0.0,0.0,63,0.00,,---,0.00,VWS V14.01,2013-09-23 07:41:00,
2013-09-23 00:46:00,46.3,34.4,29.92,East,99,0.0,2.0,63,0.00,,---,0.00,VWS V14.01,2013-09-23 07:46:00,
2013-09-23 00:51:00,46.0,34.5,29.92,ESE,107,0.0,0.0,64,0.00,,---,0.00,VWS V14.01,2013-09-23 07:51:00,
2013-09-23 00:56:00,46.0,34.9,29.92,WSW,257,0.0,0.0,65,0.00,,---,0.00,VWS V14.01,2013-09-23 07:56:00,
2013-09-23 01:01:00,46.0,34.9,29.92,WSW,257,0.0,0.0,65,0.00,,---,0.00,VWS V14.01,2013-09-23 08:01:00,
2013-09-23 01:06:00,46.0,34.5,29.92,WSW,257,0.0,0.0,64,0.00,,---,0.00,VWS V14.01,2013-09-23 08:06:00,
2013-09-23 01:11:00,45.9,34.4,29.92,West,281,0.0,1.0,64,0.00,,---,0.00,VWS V14.01,2013-09-23 08:11:00,
2013-09-23 01:16:00,45.7,33.8,29.92,West,281,0.0,0.0,63,0.00,,---,0.00,VWS V14.01,2013-09-23 08:16:00,
2013-09-23 01:21:00,45.5,34.0,29.92,West,281,0.0,0.0,64,0.00,,---,0.00,VWS V14.01,2013-09-23 08:21:00,
2013-09-23 01:26:00,45.4,34.0,29.92,West,281,0.0,0.0,64,0.00,,---,0.00,VWS V14.01,2013-09-23 08:26:00,
2013-09-23 01:31:00,45.3,34.2,29.93,West,281,0.0,0.0,65,0.00,,---,0.00,VWS V14.01,2013-09-23 08:31:00,
2013-09-23 01:36:00,45.0,34.0,29.93,West,281,0.0,0.0,65,0.00,,---,0.00,VWS V14.01,2013-09-23 08:36:00,
2013-09-23 01:41:00,44.7,35.2,29.93,SW,227,0.0,3.0,69,0.00,,---,0.00,VWS V14.01,2013-09-23 08:41:00,
2013-09-23 01:46:00,44.8,36.0,29.93,SW,229,0.0,0.0,71,0.00,,---,0.00,VWS V14.01,2013-09-23 08:46:00,
2013-09-23 01:51:00,44.9,35.7,29.93,SW,229,0.0,0.0,70,0.00,,---,0.00,VWS V14.01,2013-09-23 08:51:00,
2013-09-23 01:56:00,44.9,35.7,29.94,SW,229,0.0,0.0,70,0.00,,---,0.00,VWS V14.01,2013-09-23 08:56:00,
2013-09-23 02:01:00,44.9,35.7,29.93,WSW,246,1.0,3.0,70,0.00,,---,0.00,VWS V14.01,2013-09-23 09:01:00,
2013-09-23 02:06:00,45.0,35.8,29.93,WSW,252,0.0,1.0,70,0.00,,---,0.00,VWS V14.01,2013-09-23 09:06:00,
2013-09-23 02:11:00,45.0,35.8,29.93,WSW,252,0.0,1.0,70,0.00,,---,0.00,VWS V14.01,2013-09-23 09:11:00,
2013-09-23 02:16:00,45.3,36.1,29.93,WSW,252,0.0,1.0,70,0.00,,---,0.00,VWS V14.01,2013-09-23 09:16:00,
2013-09-23 02:21:00,45.7,36.1,29.92,WSW,252,0.0,2.0,69,0.00,,---,0.00,VWS V14.01,2013-09-23 09:21:00,
2013-09-23 02:26:00,45.8,35.8,29.93,WSW,252,0.0,0.0,68,0.00,,---,0.00,VWS V14.01,2013-09-23 09:26:00,
2013-09-23 02:31:00,45.9,36.0,29.93,WSW,252,0.0,0.0,68,0.00,,---,0.00,VWS V14.01,2013-09-23 09:31:00,
2013-09-23 02:36:00,45.9,35.6,29.93,WSW,252,0.0,0.0,67,0.00,,---,0.00,VWS V14.01,2013-09-23 09:36:00,
2013-09-23 02:41:00,45.7,35.4,29.93,WSW,252,0.0,0.0,67,0.00,,---,0.00,VWS V14.01,2013-09-23 09:41:00,
2013-09-23 02:46:00,45.0,34.7,29.93,WSW,252,1.0,1.0,67,0.00,,---,0.00,VWS V14.01,2013-09-23 09:46:00,
2013-09-23 02:51:00,44.2,34.7,29.93,SW,234,1.0,2.0,69,0.00,,---,0.00,VWS V14.01,2013-09-23 09:51:00,
2013-09-23 02:56:00,44.1,35.7,29.93,SW,234,0.0,0.0,72,0.00,,---,0.00,VWS V14.01,2013-09-23 09:56:00,
2013-09-23 03:01:00,44.1,35.7,29.93,SW,234,0.0,0.0,72,0.00,,---,0.00,VWS V14.01,2013-09-23 10:01:00,
2013-09-23 03:06:00,44.0,35.9,29.93,SW,234,0.0,0.0,73,0.00,,---,0.00,VWS V14.01,2013-09-23 10:06:00,
2013-09-23 03:11:00,43.6,35.2,29.93,SW,234,0.0,0.0,72,0.00,,---,0.00,VWS V14.01,2013-09-23 10:11:00,
2013-09-23 03:16:00,43.1,34.7,29.93,SW,234,0.0,0.0,72,0.00,,---,0.00,VWS V14.01,2013-09-23 10:16:00,
2013-09-23 03:21:00,43.1,35.0,29.93,SW,234,0.0,0.0,73,0.00,,---,0.00,VWS V14.01,2013-09-23 10:21:00,
2013-09-23 03:26:00,43.2,35.8,29.93,SW,234,0.0,0.0,75,0.00,,---,0.00,VWS V14.01,2013-09-23 10:26:00,
2013-09-23 03:31:00,43.2,35.8,29.93,SW,234,0.0,0.0,75,0.00,,---,0.00,VWS V14.01,2013-09-23 10:31:00,
2013-09-23 03:36:00,42.8,34.8,29.93,SW,234,0.0,0.0,73,0.00,,---,0.00,VWS V14.01,2013-09-23 10:36:00,
2013-09-23 03:41:00,42.6,34.9,29.93,SW,234,0.0,0.0,74,0.00,,---,0.00,VWS V14.01,2013-09-23 10:41:00,
2013-09-23 03:46:00,42.5,35.8,29.93,SW,234,0.0,1.0,77,0.00,,---,0.00,VWS V14.01,2013-09-23 10:46:00,
2013-09-23 03:51:00,42.5,35.8,29.93,SW,234,0.0,0.0,77,0.00,,---,0.00,VWS V14.01,2013-09-23 10:51:00,
2013-09-23 03:56:00,42.4,35.7,29.93,SW,234,0.0,0.0,77,0.00,,---,0.00,VWS V14.01,2013-09-23 10:56:00,
2013-09-23 04:01:00,42.3,35.3,29.93,SSW,200,0.0,0.0,76,0.00,,---,0.00,VWS V14.01,2013-09-23 11:01:00,
2013-09-23 04:06:00,42.2,35.2,29.93,SSW,200,0.0,0.0,76,0.00,,---,0.00,VWS V14.01,2013-09-23 11:06:00,
2013-09-23 04:11:00,42.0,35.0,29.93,SSW,200,0.0,0.0,76,0.00,,---,0.00,VWS V14.01,2013-09-23 11:11:00,
2013-09-23 04:16:00,41.8,34.8,29.93,SSW,200,0.0,0.0,76,0.00,,---,0.00,VWS V14.01,2013-09-23 11:16:00,
2013-09-23 04:21:00,41.6,34.6,29.93,SSW,200,0.0,1.0,76,0.00,,---,0.00,VWS V14.01,2013-09-23 11:21:00,
2013-09-23 04:26:00,41.3,34.3,29.93,SSW,200,0.0,0.0,76,0.00,,---,0.00,VWS V14.01,2013-09-23 11:26:00,
2013-09-23 04:31:00,41.0,34.0,29.93,SSW,200,0.0,0.0,76,0.00,,---,0.00,VWS V14.01,2013-09-23 11:31:00,
2013-09-23 04:36:00,40.6,33.6,29.94,SSW,200,0.0,0.0,76,0.00,,---,0.00,VWS V14.01,2013-09-23 11:36:00,
2013-09-23 04:41:00,40.5,34.2,29.94,SSW,200,0.0,0.0,78,0.00,,---,0.00,VWS V14.01,2013-09-23 11:41:00,
2013-09-23 04:46:00,40.4,34.1,29.94,SSW,200,0.0,0.0,78,0.00,,---,0.00,VWS V14.01,2013-09-23 11:46:00,
2013-09-23 04:51:00,40.3,34.3,29.94,SSW,200,0.0,0.0,79,0.00,,---,0.00,VWS V14.01,2013-09-23 11:51:00,
2013-09-23 04:56:00,40.1,33.8,29.94,SSW,200,0.0,0.0,78,0.00,,---,0.00,VWS V14.01,2013-09-23 11:56:00,
2013-09-23 05:01:00,40.0,34.0,29.94,SSW,200,0.0,0.0,79,0.00,,---,0.00,VWS V14.01,2013-09-23 12:01:00,
2013-09-23 05:06:00,39.8,33.5,29.95,SSW,200,0.0,0.0,78,0.00,,---,0.00,VWS V14.01,2013-09-23 12:06:00,
2013-09-23 05:11:00,39.5,33.5,29.95,SSW,200,0.0,0.0,79,0.00,,---,0.00,VWS V14.01,2013-09-23 12:11:00,
2013-09-23 05:16:00,39.5,33.8,29.95,SSW,200,0.0,0.0,80,0.00,,---,0.00,VWS V14.01,2013-09-23 12:16:00,
2013-09-23 05:21:00,39.5,34.2,29.95,SSW,200,0.0,0.0,81,0.00,,---,0.00,VWS V14.01,2013-09-23 12:21:00,
2013-09-23 05:26:00,39.5,34.2,29.96,SSW,200,0.0,0.0,81,0.00,,---,0.00,VWS V14.01,2013-09-23 12:26:00,
2013-09-23 05:31:00,39.5,34.5,29.96,SSW,200,0.0,0.0,82,0.00,,---,0.00,VWS V14.01,2013-09-23 12:31:00,
2013-09-23 05:36:00,39.4,34.4,29.96,SSW,200,0.0,0.0,82,0.00,,---,0.00,VWS V14.01,2013-09-23 12:36:00,
2013-09-23 05:41:00,39.2,34.2,29.96,SSW,200,0.0,0.0,82,0.00,,---,0.00,VWS V14.01,2013-09-23 12:41:00,
2013-09-23 05:46:00,39.4,34.7,29.96,SSW,200,0.0,0.0,83,0.00,,---,0.00,VWS V14.01,2013-09-23 12:46:00,
2013-09-23 05:51:00,39.1,34.1,29.96,SSW,200,1.0,2.0,82,0.00,,---,0.00,VWS V14.01,2013-09-23 12:51:00,
2013-09-23 05:56:00,39.0,34.3,29.96,SSW,200,0.0,0.0,83,0.00,,---,0.00,VWS V14.01,2013-09-23 12:56:00,
2013-09-23 06:01:00,39.1,34.4,29.97,SSW,200,0.0,0.0,83,0.00,,---,0.00,VWS V14.01,2013-09-23 13:01:00,
2013-09-23 06:06:00,39.2,34.8,29.97,SSW,200,0.0,0.0,84,0.00,,---,0.00,VWS V14.01,2013-09-23 13:06:00,
2013-09-23 06:11:00,39.0,34.3,29.97,SSW,200,0.0,0.0,83,0.00,,---,0.00,VWS V14.01,2013-09-23 13:11:00,
2013-09-23 06:16:00,38.9,34.2,29.97,SSW,200,0.0,0.0,83,0.00,,---,0.00,VWS V14.01,2013-09-23 13:16:00,
2013-09-23 06:21:00,39.0,34.6,29.97,SSW,200,0.0,0.0,84,0.00,,---,0.00,VWS V14.01,2013-09-23 13:21:00,
2013-09-23 06:26:00,39.2,34.8,29.98,SSW,200,0.0,0.0,84,0.00,,---,0.00,VWS V14.01,2013-09-23 13:26:00,
2013-09-23 06:31:00,39.0,34.3,29.98,SSW,200,0.0,0.0,83,0.00,,---,0.00,VWS V14.01,2013-09-23 13:31:00,
2013-09-23 06:36:00,39.0,34.0,29.98,SSW,200,0.0,0.0,82,0.00,,---,0.00,VWS V14.01,2013-09-23 13:36:00,
2013-09-23 06:41:00,39.0,34.0,29.98,SSW,200,0.0,0.0,82,0.00,,---,0.00,VWS V14.01,2013-09-23 13:41:00,
2013-09-23 06:46:00,39.0,34.3,29.98,SSW,200,0.0,0.0,83,0.00,,---,0.00,VWS V14.01,2013-09-23 13:46:00,
2013-09-23 06:51:00,38.9,33.9,29.98,SSW,200,0.0,0.0,82,0.00,,---,0.00,VWS V14.01,2013-09-23 13:51:00,
2013-09-23 06:56:00,38.8,33.8,29.98,SSW,200,0.0,0.0,82,0.00,,---,0.00,VWS V14.01,2013-09-23 13:56:00,
2013-09-23 07:01:00,38.9,34.2,29.98,SSW,200,0.0,0.0,83,0.00,,---,0.00,VWS V14.01,2013-09-23 14:01:00,
2013-09-23 07:06:00,39.0,34.6,29.99,SSW,200,0.0,0.0,84,0.00,,---,0.00,VWS V14.01,2013-09-23 14:06:00,
2013-09-23 07:11:00,39.2,34.5,29.99,SSW,196,0.0,1.0,83,0.00,,---,0.00,VWS V14.01,2013-09-23 14:11:00,
2013-09-23 07:16:00,39.3,34.6,29.98,SSW,196,0.0,0.0,83,0.00,,---,0.00,VWS V14.01,2013-09-23 14:16:00,
2013-09-23 07:21:00,39.6,34.9,29.98,SSW,196,0.0,0.0,83,0.00,,---,0.00,VWS V14.01,2013-09-23 14:21:00,
2013-09-23 07:26:00,40.1,35.7,29.96,South,182,0.0,1.0,84,0.00,,---,0.00,VWS V14.01,2013-09-23 14:26:00,
2013-09-23 07:31:00,40.6,35.8,29.99,South,182,0.0,0.0,83,0.00,,---,0.00,VWS V14.01,2013-09-23 14:31:00,
2013-09-23 07:36:00,41.8,36.7,29.96,South,182,0.0,0.0,82,0.00,,---,0.00,VWS V14.01,2013-09-23 14:36:00,
2013-09-23 07:41:00,42.4,37.0,29.95,South,182,0.0,0.0,81,0.00,,---,0.00,VWS V14.01,2013-09-23 14:41:00,
2013-09-23 07:46:00,43.3,37.9,29.94,South,182,0.0,0.0,81,0.00,,---,0.00,VWS V14.01,2013-09-23 14:46:00,
2013-09-23 07:51:00,44.6,38.5,29.95,South,182,0.0,1.0,79,0.00,,---,0.00,VWS V14.01,2013-09-23 14:51:00,
2013-09-23 07:56:00,45.9,39.1,29.93,South,182,0.0,0.0,77,0.00,,---,0.00,VWS V14.01,2013-09-23 14:56:00,
2013-09-23 08:01:00,47.0,39.5,29.86,South,182,0.0,0.0,75,0.00,,---,0.00,VWS V14.01,2013-09-23 15:01:00,
2013-09-23 08:06:00,48.6,40.0,29.99,SW,223,3.0,4.0,72,0.00,,---,0.00,VWS V14.01,2013-09-23 15:06:00,
2013-09-23 08:11:00,49.3,39.6,29.99,SW,215,1.0,3.0,69,0.00,,---,0.00,VWS V14.01,2013-09-23 15:11:00,
2013-09-23 08:16:00,49.6,39.5,29.99,SW,215,3.0,4.0,68,0.00,,---,0.00,VWS V14.01,2013-09-23 15:16:00,
2013-09-23 08:21:00,50.0,39.5,29.99,SW,215,2.0,3.0,67,0.00,,---,0.00,VWS V14.01,2013-09-23 15:21:00,
2013-09-23 08:26:00,50.7,39.8,29.99,SW,215,0.0,0.0,66,0.00,,---,0.00,VWS V14.01,2013-09-23 15:26:00,
2013-09-23 08:31:00,51.6,39.8,29.99,SW,215,2.0,2.0,64,0.00,,---,0.00,VWS V14.01,2013-09-23 15:31:00,
2013-09-23 08:36:00,52.4,39.8,29.99,SW,215,0.0,1.0,62,0.00,,---,0.00,VWS V14.01,2013-09-23 15:36:00,
2013-09-23 08:41:00,53.0,39.9,30.00,SSW,206,0.0,2.0,61,0.00,,---,0.00,VWS V14.01,2013-09-23 15:41:00,
2013-09-23 08:46:00,53.5,40.4,30.00,SSW,206,1.0,2.0,61,0.00,,---,0.00,VWS V14.01,2013-09-23 15:46:00,
2013-09-23 08:51:00,54.0,40.4,30.00,SSW,207,0.0,4.0,60,0.00,,---,0.00,VWS V14.01,2013-09-23 15:51:00,
2013-09-23 08:57:00,54.7,40.7,30.00,SSW,207,0.0,2.0,59,0.00,,---,0.00,VWS V14.01,2013-09-23 15:57:00,
2013-09-23 09:02:00,55.2,40.2,30.00,SSW,206,0.0,4.0,57,0.00,,---,0.00,VWS V14.01,2013-09-23 16:02:00,
2013-09-23 09:07:00,55.7,40.7,30.00,SSW,206,0.0,0.0,57,0.00,,---,0.00,VWS V14.01,2013-09-23 16:07:00,
2013-09-23 09:12:00,56.7,40.7,30.00,SW,233,0.0,3.0,55,0.00,,---,0.00,VWS V14.01,2013-09-23 16:12:00,
2013-09-23 09:17:00,57.4,40.9,30.00,SW,229,0.0,0.0,54,0.00,,---,0.00,VWS V14.01,2013-09-23 16:17:00,
2013-09-23 09:22:00,58.2,41.2,30.00,SW,229,0.0,0.0,53,0.00,,---,0.00,VWS V14.01,2013-09-23 16:22:00,
2013-09-23 09:27:00,59.0,40.9,30.00,SW,232,1.0,1.0,51,0.00,,---,0.00,VWS V14.01,2013-09-23 16:27:00,
2013-09-23 09:32:00,59.1,41.5,30.00,ENE,63,2.0,4.0,52,0.00,,---,0.00,VWS V14.01,2013-09-23 16:32:00,
2013-09-23 09:37:00,59.6,41.0,30.00,ENE,76,0.0,3.0,50,0.00,,---,0.00,VWS V14.01,2013-09-23 16:37:00,
2013-09-23 09:42:00,60.1,41.4,30.00,SE,136,3.0,3.0,50,0.00,,---,0.00,VWS V14.01,2013-09-23 16:42:00,
2013-09-23 09:47:00,60.4,41.2,30.00,SE,136,0.0,0.0,49,0.00,,---,0.00,VWS V14.01,2013-09-23 16:47:00,
2013-09-23 09:52:00,60.8,41.0,30.00,SE,138,0.0,4.0,48,0.00,,---,0.00,VWS V14.01,2013-09-23 16:52:00,
2013-09-23 09:57:00,60.6,40.3,30.00,South,173,0.0,3.0,47,0.00,,---,0.00,VWS V14.01,2013-09-23 16:57:00,
2013-09-23 10:02:00,61.1,40.7,30.00,SE,136,0.0,4.0,47,0.00,,---,0.00,VWS V14.01,2013-09-23 17:02:00,
2013-09-23 10:07:00,61.6,41.2,30.00,SE,141,2.0,5.0,47,0.00,,---,0.00,VWS V14.01,2013-09-23 17:07:00,
2013-09-23 10:12:00,61.3,40.9,30.00,SSE,165,0.0,3.0,47,0.00,,---,0.00,VWS V14.01,2013-09-23 17:12:00,
2013-09-23 10:17:00,61.6,41.2,30.00,South,169,0.0,2.0,47,0.00,,---,0.00,VWS V14.01,2013-09-23 17:17:00,
2013-09-23 10:22:00,62.6,41.5,30.00,South,178,1.0,2.0,46,0.00,,---,0.00,VWS V14.01,2013-09-23 17:22:00,
2013-09-23 10:27:00,63.4,41.7,30.00,SSE,161,0.0,0.0,45,0.00,,---,0.00,VWS V14.01,2013-09-23 17:27:00,
2013-09-23 10:32:00,64.4,41.4,30.00,ENE,71,2.0,3.0,43,0.00,,---,0.00,VWS V14.01,2013-09-23 17:32:00,
2013-09-23 10:37:00,64.8,41.2,29.99,East,80,0.0,2.0,42,0.00,,---,0.00,VWS V14.01,2013-09-23 17:37:00,
2013-09-23 10:42:00,64.8,41.2,29.99,South,190,1.0,4.0,42,0.00,,---,0.00,VWS V14.01,2013-09-23 17:42:00,
2013-09-23 10:47:00,64.6,41.0,29.99,SSE,168,0.0,3.0,42,0.00,,---,0.00,VWS V14.01,2013-09-23 17:47:00,
2013-09-23 10:52:00,65.2,41.5,29.99,SE,130,0.0,3.0,42,0.00,,---,0.00,VWS V14.01,2013-09-23 17:52:00,
2013-09-23 10:57:00,65.2,40.3,29.99,SSW,199,0.0,6.0,40,0.00,,---,0.00,VWS V14.01,2013-09-23 17:57:00,
2013-09-23 11:02:00,65.5,40.6,29.99,SSW,207,2.0,3.0,40,0.00,,---,0.00,VWS V14.01,2013-09-23 18:02:00,
2013-09-23 11:07:00,65.5,39.9,29.99,South,175,0.0,2.0,39,0.00,,---,0.00,VWS V14.01,2013-09-23 18:07:00,
2013-09-23 11:12:00,66.1,41.1,29.99,South,182,0.0,7.0,40,0.00,,---,0.00,VWS V14.01,2013-09-23 18:12:00,
2013-09-23 11:17:00,66.7,41.0,29.99,West,259,0.0,2.0,39,0.00,,---,0.00,VWS V14.01,2013-09-23 18:17:00,
2013-09-23 11:22:00,66.3,41.9,29.99,NNE,28,2.0,2.0,41,0.00,,---,0.00,VWS V14.01,2013-09-23 18:22:00,
2013-09-23 11:27:00,67.1,41.3,29.99,SSE,158,5.0,5.0,39,0.00,,---,0.00,VWS V14.01,2013-09-23 18:27:00,
2013-09-23 11:32:00,67.7,41.2,29.98,SSE,161,2.0,4.0,38,0.00,,---,0.00,VWS V14.01,2013-09-23 18:32:00,
2013-09-23 11:37:00,67.6,41.1,29.98,ESE,121,3.0,5.0,38,0.00,,---,0.00,VWS V14.01,2013-09-23 18:37:00,
2013-09-23 11:42:00,68.2,41.0,29.98,South,171,0.0,3.0,37,0.00,,---,0.00,VWS V14.01,2013-09-23 18:42:00,
2013-09-23 11:47:00,68.8,40.8,29.97,SSE,159,0.0,1.0,36,0.00,,---,0.00,VWS V14.01,2013-09-23 18:47:00,
2013-09-23 11:52:00,68.9,40.2,29.98,South,176,1.0,4.0,35,0.00,,---,0.00,VWS V14.01,2013-09-23 18:52:00,
2013-09-23 11:57:00,68.1,40.2,29.98,South,190,4.0,7.0,36,0.00,,---,0.00,VWS V14.01,2013-09-23 18:57:00,
2013-09-23 12:02:00,68.0,40.1,29.97,South,177,0.0,5.0,36,0.00,,---,0.00,VWS V14.01,2013-09-23 19:02:00,
2013-09-23 12:07:00,69.1,40.3,29.97,WSW,239,3.0,5.0,35,0.00,,---,0.00,VWS V14.01,2013-09-23 19:07:00,
2013-09-23 12:13:00,69.4,40.6,29.97,SSE,166,4.0,4.0,35,0.00,,---,0.00,VWS V14.01,2013-09-23 19:13:00,
2013-09-23 12:18:00,70.1,40.5,29.97,South,171,3.0,5.0,34,0.00,,---,0.00,VWS V14.01,2013-09-23 19:18:00,
2013-09-23 12:23:00,69.5,39.9,29.97,South,173,5.0,9.0,34,0.00,,---,0.00,VWS V14.01,2013-09-23 19:23:00,
2013-09-23 12:28:00,68.9,40.2,29.97,SSW,198,2.0,6.0,35,0.00,,---,0.00,VWS V14.01,2013-09-23 19:28:00,
2013-09-23 12:33:00,69.3,39.8,29.96,SE,128,3.0,4.0,34,0.00,,---,0.00,VWS V14.01,2013-09-23 19:33:00,
2013-09-23 12:38:00,70.5,40.8,29.96,SE,142,6.0,8.0,34,0.00,,---,0.00,VWS V14.01,2013-09-23 19:38:00,
2013-09-23 12:43:00,70.4,40.7,29.96,SE,144,0.0,7.0,34,0.00,,---,0.00,VWS V14.01,2013-09-23 19:43:00,
2013-09-23 12:48:00,70.3,39.9,29.95,ESE,107,0.0,4.0,33,0.00,,---,0.00,VWS V14.01,2013-09-23 19:48:00,
2013-09-23 12:53:00,70.7,41.0,29.95,East,90,0.0,5.0,34,0.00,,---,0.00,VWS V14.01,2013-09-23 19:53:00,
2013-09-23 12:58:00,71.6,40.2,29.95,SE,129,0.0,2.0,32,0.00,,---,0.00,VWS V14.01,2013-09-23 19:58:00,
2013-09-23 13:02:00,71.2,39.9,29.94,SSW,196,3.0,7.0,32,0.00,,---,0.00,VWS V14.01,2013-09-23 20:02:00,
2013-09-23 13:07:00,71.6,40.2,29.94,East,101,1.0,6.0,32,0.00,,---,0.00,VWS V14.01,2013-09-23 20:07:00,
2013-09-23 13:12:00,71.6,41.0,29.94,East,100,3.0,4.0,33,0.00,,---,0.00,VWS V14.01,2013-09-23 20:12:00,
2013-09-23 13:17:00,72.0,40.6,29.94,East,87,1.0,5.0,32,0.00,,---,0.00,VWS V14.01,2013-09-23 20:17:00,
2013-09-23 13:22:00,72.7,40.3,29.93,ESE,123,3.0,6.0,31,0.00,,---,0.00,VWS V14.01,2013-09-23 20:22:00,
2013-09-23 13:27:00,73.0,38.0,29.93,ESE,123,5.0,7.0,28,0.00,,---,0.00,VWS V14.01,2013-09-23 20:27:00,
2013-09-23 13:33:00,72.9,38.8,29.93,East,85,2.0,4.0,29,0.00,,---,0.00,VWS V14.01,2013-09-23 20:33:00,
2013-09-23 13:38:00,73.0,39.8,29.93,SE,132,4.0,4.0,30,0.00,,---,0.00,VWS V14.01,2013-09-23 20:38:00,
2013-09-23 13:43:00,72.9,38.8,29.93,SSE,151,0.0,7.0,29,0.00,,---,0.00,VWS V14.01,2013-09-23 20:43:00,
2013-09-23 13:48:00,73.4,39.2,29.92,ENE,75,4.0,11.0,29,0.00,,---,0.00,VWS V14.01,2013-09-23 20:48:00,
2013-09-23 13:53:00,72.8,39.6,29.92,South,175,3.0,4.0,30,0.00,,---,0.00,VWS V14.01,2013-09-23 20:53:00,
2013-09-23 13:58:00,73.0,38.9,29.92,ESE,121,0.0,4.0,29,0.00,,---,0.00,VWS V14.01,2013-09-23 20:58:00,
2013-09-23 14:03:00,74.1,38.0,29.92,ESE,120,0.0,0.0,27,0.00,,---,0.00,VWS V14.01,2013-09-23 21:03:00,
2013-09-23 14:08:00,74.5,38.4,29.92,SE,143,0.0,8.0,27,0.00,,---,0.00,VWS V14.01,2013-09-23 21:08:00,
2013-09-23 14:13:00,73.9,38.8,29.91,SSE,157,0.0,6.0,28,0.00,,---,0.00,VWS V14.01,2013-09-23 21:13:00,
2013-09-23 14:18:00,74.1,39.8,29.91,ESE,111,5.0,7.0,29,0.00,,---,0.00,VWS V14.01,2013-09-23 21:18:00,
2013-09-23 14:23:00,75.2,39.9,29.91,SE,126,5.0,7.0,28,0.00,,---,0.00,VWS V14.01,2013-09-23 21:23:00,
2013-09-23 14:28:00,75.7,38.4,29.91,ENE,78,0.0,5.0,26,0.00,,---,0.00,VWS V14.01,2013-09-23 21:28:00,
2013-09-23 14:33:00,75.3,39.0,29.91,ESE,105,4.0,9.0,27,0.00,,---,0.00,VWS V14.01,2013-09-23 21:33:00,
2013-09-23 14:38:00,75.6,39.3,29.90,ENE,73,4.0,5.0,27,0.00,,---,0.00,VWS V14.01,2013-09-23 21:38:00,
2013-09-23 14:43:00,75.6,38.3,29.90,SE,124,4.0,8.0,26,0.00,,---,0.00,VWS V14.01,2013-09-23 21:43:00,
2013-09-23 14:48:00,75.4,38.2,29.90,SE,124,7.0,7.0,26,0.00,,---,0.00,VWS V14.01,2013-09-23 21:48:00,
2013-09-23 14:53:00,75.4,37.2,29.90,SE,130,3.0,7.0,25,0.00,,---,0.00,VWS V14.01,2013-09-23 21:53:00,
2013-09-23 14:58:00,75.9,38.6,29.90,SE,138,0.0,7.0,26,0.00,,---,0.00,VWS V14.01,2013-09-23 21:58:00,
2013-09-23 15:03:00,76.3,37.9,29.90,SE,126,0.0,6.0,25,0.00,,---,0.00,VWS V14.01,2013-09-23 22:03:00,
2013-09-23 15:08:00,76.4,37.0,29.89,East,101,0.0,1.0,24,0.00,,---,0.00,VWS V14.01,2013-09-23 22:08:00,
2013-09-23 15:13:00,76.1,35.7,29.89,SE,129,0.0,5.0,23,0.00,,---,0.00,VWS V14.01,2013-09-23 22:13:00,
2013-09-23 15:18:00,76.2,36.8,29.89,SE,126,5.0,7.0,24,0.00,,---,0.00,VWS V14.01,2013-09-23 22:18:00,
2013-09-23 15:23:00,75.6,36.3,29.88,SSE,148,7.0,7.0,24,0.00,,---,0.00,VWS V14.01,2013-09-23 22:23:00,
2013-09-23 15:28:00,75.3,36.0,29.88,ESE,109,1.0,7.0,24,0.00,,---,0.00,VWS V14.01,2013-09-23 22:28:00,
2013-09-23 15:33:00,75.9,35.5,29.88,SE,128,1.0,4.0,23,0.00,,---,0.00,VWS V14.01,2013-09-23 22:33:00,
2013-09-23 15:38:00,76.3,35.8,29.88,ENE,71,5.0,8.0,23,0.00,,---,0.00,VWS V14.01,2013-09-23 22:38:00,
2013-09-23 15:43:00,76.5,34.9,29.88,ESE,121,2.0,8.0,22,0.00,,---,0.00,VWS V14.01,2013-09-23 22:43:00,
2013-09-23 15:48:00,76.4,33.6,29.87,ENE,61,2.0,7.0,21,0.00,,---,0.00,VWS V14.01,2013-09-23 22:48:00,
2013-09-23 15:53:00,76.7,32.7,29.87,SE,135,3.0,4.0,20,0.00,,---,0.00,VWS V14.01,2013-09-23 22:53:00,
2013-09-23 15:58:00,76.2,32.2,29.87,SSE,163,2.0,5.0,20,0.00,,---,0.00,VWS V14.01,2013-09-23 22:58:00,
2013-09-23 16:03:00,76.1,33.4,29.87,South,176,5.0,5.0,21,0.00,,---,0.00,VWS V14.01,2013-09-23 23:03:00,
2013-09-23 16:08:00,76.1,32.2,29.87,ESE,106,4.0,5.0,20,0.00,,---,0.00,VWS V14.01,2013-09-23 23:08:00,
2013-09-23 16:13:00,76.5,31.2,29.86,East,94,2.0,3.0,19,0.00,,---,0.00,VWS V14.01,2013-09-23 23:13:00,
2013-09-23 16:18:00,77.0,31.6,29.86,ESE,119,0.0,4.0,19,0.00,,---,0.00,VWS V14.01,2013-09-23 23:18:00,
2013-09-23 16:23:00,77.2,31.8,29.86,ESE,119,0.0,0.0,19,0.00,,---,0.00,VWS V14.01,2013-09-23 23:23:00,
2013-09-23 16:27:00,77.4,32.0,29.86,ESE,113,3.0,5.0,19,0.00,,---,0.00,VWS V14.01,2013-09-23 23:27:00,
2013-09-23 16:32:00,77.3,30.5,29.86,ESE,113,0.0,1.0,18,0.00,,---,0.00,VWS V14.01,2013-09-23 23:32:00,
2013-09-23 16:37:00,77.2,30.5,29.86,ENE,70,0.0,3.0,18,0.00,,---,0.00,VWS V14.01,2013-09-23 23:37:00,
2013-09-23 16:43:00,77.5,32.0,29.86,ENE,67,0.0,2.0,19,0.00,,---,0.00,VWS V14.01,2013-09-23 23:43:00,
2013-09-23 16:48:00,77.7,30.9,29.86,SE,126,0.0,4.0,18,0.00,,---,0.00,VWS V14.01,2013-09-23 23:48:00,
2013-09-23 16:53:00,77.0,30.3,29.86,SE,130,0.0,3.0,18,0.00,,---,0.00,VWS V14.01,2013-09-23 23:53:00,
2013-09-23 16:58:00,76.6,30.0,29.86,ESE,121,2.0,4.0,18,0.00,,---,0.00,VWS V14.01,2013-09-23 23:58:00,
2013-09-23 17:03:00,76.7,31.4,29.85,ESE,113,0.0,3.0,19,0.00,,---,0.00,VWS V14.01,2013-09-24 00:03:00,
2013-09-23 17:08:00,76.9,31.5,29.85,East,93,0.0,5.0,19,0.00,,---,0.00,VWS V14.01,2013-09-24 00:08:00,
2013-09-23 17:13:00,76.8,31.5,29.85,ENE,76,0.0,4.0,19,0.00,,---,0.00,VWS V14.01,2013-09-24 00:13:00,
2013-09-23 17:18:00,76.2,31.0,29.85,SE,129,3.0,7.0,19,0.00,,---,0.00,VWS V14.01,2013-09-24 00:18:00,
2013-09-23 17:23:00,76.1,32.2,29.85,ESE,118,3.0,5.0,20,0.00,,---,0.00,VWS V14.01,2013-09-24 00:23:00,
2013-09-23 17:28:00,76.0,32.1,29.85,SE,124,0.0,5.0,20,0.00,,---,0.00,VWS V14.01,2013-09-24 00:28:00,
2013-09-23 17:33:00,75.8,33.1,29.85,SE,132,0.0,4.0,21,0.00,,---,0.00,VWS V14.01,2013-09-24 00:33:00,
2013-09-23 17:38:00,75.7,33.0,29.84,ESE,113,3.0,4.0,21,0.00,,---,0.00,VWS V14.01,2013-09-24 00:38:00,
2013-09-23 17:43:00,75.6,33.0,29.84,ESE,110,0.0,3.0,21,0.00,,---,0.00,VWS V14.01,2013-09-24 00:43:00,
2013-09-23 17:48:00,75.2,30.1,29.84,ESE,116,3.0,6.0,19,0.00,,---,0.00,VWS V14.01,2013-09-24 00:48:00,
2013-09-23 17:53:00,75.0,31.2,29.84,ESE,113,3.0,4.0,20,0.00,,---,0.00,VWS V14.01,2013-09-24 00:53:00,
2013-09-23 17:58:00,74.6,29.7,29.84,ESE,122,0.0,4.0,19,0.00,,---,0.00,VWS V14.01,2013-09-24 00:58:00,
2013-09-23 18:03:00,74.4,32.0,29.84,East,98,1.0,3.0,21,0.00,,---,0.00,VWS V14.01,2013-09-24 01:03:00,
2013-09-23 18:08:00,74.3,30.7,29.84,East,94,0.0,2.0,20,0.00,,---,0.00,VWS V14.01,2013-09-24 01:08:00,
2013-09-23 18:13:00,74.3,30.7,29.84,East,84,0.0,3.0,20,0.00,,---,0.00,VWS V14.01,2013-09-24 01:13:00,
2013-09-23 18:18:00,74.1,30.5,29.84,East,87,0.0,2.0,20,0.00,,---,0.00,VWS V14.01,2013-09-24 01:18:00,
2013-09-23 18:23:00,74.0,31.6,29.84,East,89,0.0,1.0,21,0.00,,---,0.00,VWS V14.01,2013-09-24 01:23:00,
2013-09-23 18:28:00,73.6,31.3,29.84,East,89,0.0,0.0,21,0.00,,---,0.00,VWS V14.01,2013-09-24 01:28:00,
2013-09-23 18:33:00,73.4,31.1,29.84,East,89,0.0,1.0,21,0.00,,---,0.00,VWS V14.01,2013-09-24 01:33:00,
2013-09-23 18:38:00,72.9,30.7,29.84,East,89,0.0,1.0,21,0.00,,---,0.00,VWS V14.01,2013-09-24 01:38:00,
2013-09-23 18:43:00,72.6,30.5,29.84,East,89,0.0,0.0,21,0.00,,---,0.00,VWS V14.01,2013-09-24 01:43:00,
2013-09-23 18:48:00,72.4,31.4,29.84,East,89,0.0,0.0,22,0.00,,---,0.00,VWS V14.01,2013-09-24 01:48:00,
2013-09-23 18:53:00,71.8,33.1,29.84,East,89,0.0,0.0,24,0.00,,---,0.00,VWS V14.01,2013-09-24 01:53:00,
2013-09-23 18:58:00,71.3,33.7,29.84,East,89,0.0,0.0,25,0.00,,---,0.00,VWS V14.01,2013-09-24 01:58:00,
2013-09-23 19:03:00,69.8,33.4,29.84,East,89,0.0,0.0,26,0.00,,---,0.00,VWS V14.01,2013-09-24 02:03:00,
2013-09-23 19:08:00,69.0,34.6,29.84,East,89,0.0,0.0,28,0.00,,---,0.00,VWS V14.01,2013-09-24 02:08:00,
2013-09-23 19:13:00,68.0,34.6,29.84,East,89,0.0,0.0,29,0.00,,---,0.00,VWS V14.01,2013-09-24 02:13:00,
2013-09-23 19:18:00,66.6,35.0,29.84,East,89,0.0,0.0,31,0.00,,---,0.00,VWS V14.01,2013-09-24 02:18:00,
2013-09-23 19:23:00,66.2,35.5,29.84,East,89,0.0,0.0,32,0.00,,---,0.00,VWS V14.01,2013-09-24 02:23:00,
2013-09-23 19:28:00,65.8,35.2,29.84,East,89,0.0,0.0,32,0.00,,---,0.00,VWS V14.01,2013-09-24 02:28:00,
2013-09-23 19:33:00,65.2,34.6,29.84,East,89,0.0,0.0,32,0.00,,---,0.00,VWS V14.01,2013-09-24 02:33:00,
2013-09-23 19:38:00,63.5,34.7,29.85,East,89,0.0,0.0,34,0.00,,---,0.00,VWS V14.01,2013-09-24 02:38:00,
2013-09-23 19:43:00,62.8,35.5,29.85,East,89,0.0,0.0,36,0.00,,---,0.00,VWS V14.01,2013-09-24 02:43:00,
2013-09-23 19:48:00,62.2,36.3,29.85,East,89,0.0,0.0,38,0.00,,---,0.00,VWS V14.01,2013-09-24 02:48:00,
2013-09-23 19:53:00,61.8,36.0,29.85,East,89,0.0,0.0,38,0.00,,---,0.00,VWS V14.01,2013-09-24 02:53:00,
2013-09-23 19:58:00,61.6,36.4,29.86,East,89,0.0,0.0,39,0.00,,---,0.00,VWS V14.01,2013-09-24 02:58:00,
2013-09-23 20:03:00,61.3,36.8,29.86,East,89,0.0,0.0,40,0.00,,---,0.00,VWS V14.01,2013-09-24 03:03:00,
2013-09-23 20:08:00,60.7,36.3,29.85,East,89,0.0,0.0,40,0.00,,---,0.00,VWS V14.01,2013-09-24 03:08:00,
2013-09-23 20:13:00,60.5,35.4,29.85,East,89,0.0,0.0,39,0.00,,---,0.00,VWS V14.01,2013-09-24 03:13:00,
2013-09-23 20:18:00,60.2,35.8,29.86,East,89,0.0,0.0,40,0.00,,---,0.00,VWS V14.01,2013-09-24 03:18:00,
2013-09-23 20:23:00,59.8,34.8,29.86,East,89,0.0,0.0,39,0.00,,---,0.00,VWS V14.01,2013-09-24 03:23:00,
2013-09-23 20:29:00,59.1,36.0,29.86,East,89,1.0,1.0,42,0.00,,---,0.00,VWS V14.01,2013-09-24 03:29:00,
2013-09-23 20:34:00,58.7,35.1,29.86,East,88,0.0,0.0,41,0.00,,---,0.00,VWS V14.01,2013-09-24 03:34:00,
2013-09-23 20:39:00,58.5,34.3,29.86,East,88,0.0,0.0,40,0.00,,---,0.00,VWS V14.01,2013-09-24 03:39:00,
2013-09-23 20:44:00,58.2,34.6,29.86,East,88,0.0,1.0,41,0.00,,---,0.00,VWS V14.01,2013-09-24 03:44:00,
2013-09-23 20:49:00,57.9,35.0,29.87,East,88,0.0,1.0,42,0.00,,---,0.00,VWS V14.01,2013-09-24 03:49:00,
2013-09-23 20:54:00,57.7,34.8,29.87,East,88,0.0,0.0,42,0.00,,---,0.00,VWS V14.01,2013-09-24 03:54:00,
2013-09-23 20:59:00,57.5,34.6,29.87,East,90,0.0,2.0,42,0.00,,---,0.00,VWS V14.01,2013-09-24 03:59:00,
2013-09-23 21:01:00,57.4,34.5,29.87,East,90,0.0,0.0,42,0.00,,---,0.00,VWS V14.01,2013-09-24 04:01:00,
2013-09-23 21:06:00,57.1,34.8,29.87,East,90,0.0,1.0,43,0.00,,---,0.00,VWS V14.01,2013-09-24 04:06:00,
2013-09-23 21:11:00,56.9,34.7,29.87,East,90,0.0,0.0,43,0.00,,---,0.00,VWS V14.01,2013-09-24 04:11:00,
2013-09-23 21:16:00,56.7,34.5,29.87,East,90,0.0,0.0,43,0.00,,---,0.00,VWS V14.01,2013-09-24 04:16:00,
2013-09-23 21:21:00,56.2,34.0,29.87,East,90,0.0,0.0,43,0.00,,---,0.00,VWS V14.01,2013-09-24 04:21:00,
2013-09-23 21:26:00,55.4,36.1,29.87,East,90,0.0,0.0,48,0.00,,---,0.00,VWS V14.01,2013-09-24 04:26:00,
2013-09-23 21:31:00,55.2,35.3,29.87,East,90,0.0,0.0,47,0.00,,---,0.00,VWS V14.01,2013-09-24 04:31:00,
2013-09-23 21:36:00,55.0,35.2,29.87,East,90,0.0,1.0,47,0.00,,---,0.00,VWS V14.01,2013-09-24 04:36:00,
2013-09-23 21:41:00,54.8,35.0,29.87,East,90,0.0,0.0,47,0.00,,---,0.00,VWS V14.01,2013-09-24 04:41:00,
2013-09-23 21:46:00,54.7,33.8,29.87,East,90,0.0,1.0,45,0.00,,---,0.00,VWS V14.01,2013-09-24 04:46:00,
2013-09-23 21:51:00,54.2,34.4,29.87,East,90,0.0,0.0,47,0.00,,---,0.00,VWS V14.01,2013-09-24 04:51:00,
2013-09-23 21:56:00,53.8,34.1,29.87,East,90,0.0,0.0,47,0.00,,---,0.00,VWS V14.01,2013-09-24 04:56:00,
2013-09-23 22:01:00,53.4,34.7,29.87,North,5,0.0,3.0,49,0.00,,---,0.00,VWS V14.01,2013-09-24 05:01:00,
2013-09-23 22:06:00,53.1,34.5,29.87,North,5,0.0,1.0,49,0.00,,---,0.00,VWS V14.01,2013-09-24 05:06:00,
2013-09-23 22:11:00,53.0,34.4,29.87,NNW,340,0.0,1.0,49,0.00,,---,0.00,VWS V14.01,2013-09-24 05:11:00,
2013-09-23 22:16:00,53.1,34.0,29.87,NNW,336,0.0,1.0,48,0.00,,---,0.00,VWS V14.01,2013-09-24 05:16:00,
2013-09-23 22:21:00,53.0,33.3,29.87,NNW,336,0.0,0.0,47,0.00,,---,0.00,VWS V14.01,2013-09-24 05:21:00,
2013-09-23 22:26:00,52.4,33.8,29.87,NNW,336,0.0,0.0,49,0.00,,---,0.00,VWS V14.01,2013-09-24 05:26:00,
2013-09-23 22:31:00,52.4,33.8,29.87,NNW,336,0.0,0.0,49,0.00,,---,0.00,VWS V14.01,2013-09-24 05:31:00,
2013-09-23 22:36:00,52.3,33.2,29.87,NNW,336,0.0,0.0,48,0.00,,---,0.00,VWS V14.01,2013-09-24 05:36:00,
2013-09-23 22:41:00,52.3,33.2,29.87,NNW,336,0.0,0.0,48,0.00,,---,0.00,VWS V14.01,2013-09-24 05:41:00,
2013-09-23 22:46:00,52.2,32.6,29.87,NNW,336,0.0,0.0,47,0.00,,---,0.00,VWS V14.01,2013-09-24 05:46:00,
2013-09-23 22:51:00,52.3,33.2,29.87,NNW,336,0.0,1.0,48,0.00,,---,0.00,VWS V14.01,2013-09-24 05:51:00,
2013-09-23 22:56:00,52.3,33.2,29.87,NNW,336,0.0,0.0,48,0.00,,---,0.00,VWS V14.01,2013-09-24 05:56:00,
2013-09-23 23:01:00,52.4,33.3,29.87,NNW,336,0.0,1.0,48,0.00,,---,0.00,VWS V14.01,2013-09-24 06:01:00,
2013-09-23 23:06:00,52.3,32.2,29.87,NNW,335,0.0,0.0,46,0.00,,---,0.00,VWS V14.01,2013-09-24 06:06:00,
2013-09-23 23:11:00,51.9,32.8,29.87,NNW,335,0.0,0.0,48,0.00,,---,0.00,VWS V14.01,2013-09-24 06:11:00,
2013-09-23 23:16:00,51.8,32.8,29.87,NNW,335,0.0,0.0,48,0.00,,---,0.00,VWS V14.01,2013-09-24 06:16:00,
2013-09-23 23:21:00,51.8,33.3,29.87,NNW,335,0.0,1.0,49,0.00,,---,0.00,VWS V14.01,2013-09-24 06:21:00,
2013-09-23 23:26:00,51.7,32.7,29.87,NNW,335,0.0,0.0,48,0.00,,---,0.00,VWS V14.01,2013-09-24 06:26:00,
2013-09-23 23:31:00,51.6,32.6,29.87,NNW,335,1.0,1.0,48,0.00,,---,0.00,VWS V14.01,2013-09-24 06:31:00,
2013-09-23 23:36:00,51.6,32.6,29.87,NW,316,1.0,2.0,48,0.00,,---,0.00,VWS V14.01,2013-09-24 06:36:00,
2013-09-23 23:41:00,51.8,32.2,29.87,NW,315,1.0,1.0,47,0.00,,---,0.00,VWS V14.01,2013-09-24 06:41:00,
2013-09-23 23:46:00,51.6,32.6,29.86,NW,315,0.0,0.0,48,0.00,,---,0.00,VWS V14.01,2013-09-24 06:46:00,
2013-09-23 23:51:00,51.4,32.4,29.86,NW,315,0.0,0.0,48,0.00,,---,0.00,VWS V14.01,2013-09-24 06:51:00,
2013-09-23 23:56:00,51.3,32.8,29.86,NW,315,0.0,0.0,49,0.00,,---,0.00,VWS V14.01,2013-09-24 06:56:00,